Time,TemperatureF,DewpointF,PressureIn,WindDirection,WindDirectionDegrees,WindSpeedMPH,WindSpeedGustMPH,Humidity,HourlyPrecipIn,Conditions,Clouds,dailyrainin,SolarRadiationWatts/m^2,SoftwareType,DateUTC
2013-04-01 00:00:00,47.0,36.0,29.98,NNW,346,0.0,-999.0,66,-99.99,,,-99.99,0.000000,,2013-04-01 06:00:00,
2013-04-01 00:52:00,47.0,36.0,29.98,NNW,346,0.0,-999.0,66,-99.99,,,-99.99,0.000000,,2013-04-01 06:52:00,
2013-04-01 02:00:00,47.0,36.0,29.99,North,0,0.0,0.0,65,-99.99,,,-99.99,0.000000,,2013-04-01 08:00:00,
2013-04-01 03:00:00,49.0,36.0,29.96,South,186,0.0,-999.0,61,-99.99,,,-99.99,0.180000,,2013-04-01 09:00:00,
2013-04-01 03:53:00,49.0,36.0,29.96,South,186,0.0,-999.0,61,-99.99,,,-99.99,0.180000,,2013-04-01 09:53:00,
2013-04-01 04:00:00,46.0,36.0,29.99,SSW,196,1.0,-999.0,68,-99.99,,,-99.99,0.000000,,2013-04-01 10:00:00,
2013-04-01 04:53:00,46.0,36.0,29.99,SSW,196,1.0,-999.0,68,-99.99,,,-99.99,0.000000,,2013-04-01 10:53:00,
2013-04-01 05:00:00,45.0,39.0,29.99,SSW,205,6.0,-999.0,79,-99.99,,,-99.99,1.190000,,2013-04-01 11:00:00,
2013-04-01 05:53:00,45.0,39.0,29.99,SSW,205,6.0,-999.0,79,-99.99,,,-99.99,1.190000,,2013-04-01 11:53:00,
2013-04-01 06:00:00,43.0,38.0,29.97,NE,55,1.0,-999.0,83,-99.99,,,-99.99,0.700000,,2013-04-01 12:00:00,
2013-04-01 06:53:00,43.0,38.0,29.97,NE,55,1.0,-999.0,83,-99.99,,,-99.99,0.700000,,2013-04-01 12:53:00,
2013-04-01 07:00:00,42.0,38.0,29.95,North,0,0.0,-999.0,85,-99.99,,,-99.99,0.000000,,2013-04-01 13:00:00,
2013-04-01 07:52:00,42.0,38.0,29.95,North,0,0.0,-999.0,85,-99.99,,,-99.99,0.000000,,2013-04-01 13:52:00,
2013-04-01 08:00:00,45.0,38.0,29.96,South,175,0.0,-999.0,79,-99.99,,,-99.99,17.400000,,2013-04-01 14:00:00,
2013-04-01 08:53:00,45.0,38.0,29.96,South,175,0.0,-999.0,79,-99.99,,,-99.99,17.400000,,2013-04-01 14:53:00,
2013-04-01 09:00:00,45.0,39.0,29.98,West,259,3.0,-999.0,78,-99.99,,,-99.99,88.699997,,2013-04-01 15:00:00,
2013-04-01 09:53:00,45.0,39.0,29.98,West,259,3.0,-999.0,78,-99.99,,,-99.99,88.699997,,2013-04-01 15:53:00,
2013-04-01 11:00:00,45.0,38.0,30.00,West,267,3.0,-999.0,77,-99.99,,,-99.99,148.699997,,2013-04-01 17:00:00,
2013-04-01 11:53:00,45.0,38.0,30.00,West,267,3.0,-999.0,77,-99.99,,,-99.99,148.699997,,2013-04-01 17:53:00,
2013-04-01 12:00:00,42.0,38.0,30.01,SW,231,3.0,-999.0,86,-99.99,,,-99.99,85.800003,,2013-04-01 18:00:00,
2013-04-01 12:53:00,42.0,38.0,30.01,SW,231,3.0,-999.0,86,-99.99,,,-99.99,85.800003,,2013-04-01 18:53:00,
2013-04-01 13:00:00,43.0,35.0,29.99,SSE,149,7.0,-999.0,74,-99.99,,,-99.99,115.500000,,2013-04-01 19:00:00,
2013-04-01 13:53:00,43.0,35.0,29.99,SSE,149,7.0,-999.0,74,-99.99,,,-99.99,115.500000,,2013-04-01 19:53:00,
2013-04-01 14:00:00,53.0,32.0,29.94,SE,125,4.0,-999.0,44,-99.99,,,-99.99,486.299988,,2013-04-01 20:00:00,
2013-04-01 14:52:00,53.0,32.0,29.94,SE,125,4.0,-999.0,44,-99.99,,,-99.99,486.299988,,2013-04-01 20:52:00,
2013-04-01 15:00:00,47.0,36.0,29.96,SSW,205,7.0,-999.0,67,-99.99,,,-99.99,588.700012,,2013-04-01 21:00:00,
2013-04-01 15:53:00,47.0,36.0,29.96,SSW,205,7.0,-999.0,67,-99.99,,,-99.99,588.700012,,2013-04-01 21:53:00,
2013-04-01 16:00:00,43.0,37.0,29.97,South,188,6.0,-999.0,79,-99.99,,,-99.99,110.099998,,2013-04-01 22:00:00,
2013-04-01 16:52:00,43.0,37.0,29.97,South,188,6.0,-999.0,79,-99.99,,,-99.99,110.099998,,2013-04-01 22:52:00,
2013-04-01 17:00:00,49.0,38.0,29.94,SSE,163,4.0,-999.0,66,-99.99,,,-99.99,361.299988,,2013-04-01 23:00:00,
2013-04-01 17:53:00,49.0,38.0,29.94,SSE,163,4.0,-999.0,66,-99.99,,,-99.99,361.299988,,2013-04-01 23:53:00,
2013-04-01 18:00:00,52.0,35.0,29.94,SSW,200,4.0,-999.0,53,-99.99,,,-99.99,484.000000,,2013-04-02 00:00:00,
2013-04-01 18:53:00,52.0,35.0,29.94,SSW,200,4.0,-999.0,53,-99.99,,,-99.99,484.000000,,2013-04-02 00:53:00,
2013-04-01 19:00:00,49.0,37.0,29.95,SSW,213,4.0,-999.0,65,-99.99,,,-99.99,140.100006,,2013-04-02 01:00:00,
2013-04-01 19:53:00,49.0,37.0,29.95,SSW,213,4.0,-999.0,65,-99.99,,,-99.99,140.100006,,2013-04-02 01:53:00,
2013-04-01 20:00:00,41.0,37.0,29.99,WSW,253,6.0,-999.0,85,-99.99,,,-99.99,3.410000,,2013-04-02 02:00:00,
2013-04-01 20:53:00,41.0,37.0,29.99,WSW,253,6.0,-999.0,85,-99.99,,,-99.99,3.410000,,2013-04-02 02:53:00,
2013-04-01 22:00:00,38.0,36.0,-100.00,South,187,1.0,10.0,89,-99.99,,,-99.99,1.400000,,2013-04-02 04:00:00,
2013-04-01 23:00:00,40.0,37.0,30.00,North,0,0.0,0.0,91,-99.99,,,-99.99,1.350000,,2013-04-02 05:00:00,
2013-04-01 23:43:00,39.0,36.0,-100.00,North,0,0.0,0.0,90,-99.99,,,-99.99,1.300000,,2013-04-02 05:43:00,
2013-04-01 23:52:00,40.0,37.0,30.00,North,0,0.0,0.0,91,-99.99,,,-99.99,1.350000,,2013-04-02 05:52:00,